| time (UTC) | temp C | wind direction | speed KPH | gust KPH | rain 1hr cm | rain 24hr cm | rain mn cm | humidity % | barometer mb |
| 20260509205404 | 27 | 138 | 1.6 | 19.3 | 0.00 | 0.00 | 0.00 | 43 | 1008.7 |
| 20260509204904 | 27 | 164 | 0.0 | 3.2 | 0.00 | 0.00 | 0.00 | 43 | 1008.8 |
| 20260509204404 | 27 | 291 | 0.0 | 3.2 | 0.00 | 0.00 | 0.00 | 42 | 1008.9 |
| 20260509203904 | 27 | 182 | 3.2 | 16.1 | 0.00 | 0.00 | 0.00 | 44 | 1008.9 |
| 20260509203405 | 26 | 170 | 0.0 | 1.6 | 0.00 | 0.00 | 0.00 | 47 | 1009.0 |
| 20260509202905 | 26 | 165 | 0.0 | 14.5 | 0.00 | 0.00 | 0.00 | 47 | 1009.1 |
| 20260509202405 | 26 | 232 | 0.0 | 8.0 | 0.00 | 0.00 | 0.00 | 48 | 1009.1 |
| 20260509201904 | 26 | 247 | 1.6 | 11.3 | 0.00 | 0.00 | 0.00 | 48 | 1009.2 |
| 20260509201405 | 26 | 274 | 0.0 | 3.2 | 0.00 | 0.00 | 0.00 | 50 | 1009.3 |
| 20260509195404 | 25 | 264 | 0.0 | 1.6 | 0.00 | 0.00 | 0.00 | 48 | 1009.5 |
| 20260509194904 | 25 | 243 | 1.6 | 19.3 | 0.00 | 0.00 | 0.00 | 49 | 1009.5 |
| 20260509194404 | 25 | 149 | 4.8 | 19.3 | 0.00 | 0.00 | 0.00 | 48 | 1009.6 |
| 20260509193905 | 25 | 149 | 1.6 | 3.2 | 0.00 | 0.00 | 0.00 | 49 | 1009.6 |
| 20260509193405 | 25 | 164 | 0.0 | 1.6 | 0.00 | 0.00 | 0.00 | 52 | 1009.6 |
| 20260509192904 | 25 | 257 | 0.0 | 4.8 | 0.00 | 0.00 | 0.00 | 51 | 1009.6 |
| 20260509192404 | 25 | 128 | 3.2 | 19.3 | 0.00 | 0.00 | 0.00 | 53 | 1009.7 |
| 20260509191405 | 24 | 222 | 0.0 | 3.2 | 0.00 | 0.00 | 0.00 | 56 | 1009.7 |
| 20260509190904 | 24 | 326 | 0.0 | 3.2 | 0.00 | 0.00 | 0.00 | 57 | 1009.7 |
| 20260509190404 | 23 | 143 | 0.0 | 3.2 | 0.00 | 0.00 | 0.00 | 58 | 1009.8 |
| 20260509185905 | 23 | 194 | 0.0 | 3.2 | 0.00 | 0.00 | 0.00 | 57 | 1009.8 |
| 20260509185404 | 23 | 249 | 0.0 | 4.8 | 0.00 | 0.00 | 0.00 | 54 | 1009.9 |
| 20260509184904 | 23 | 319 | 0.0 | 3.2 | 0.00 | 0.00 | 0.00 | 53 | 1009.9 |
| 20260509184404 | 23 | 271 | 0.0 | 3.2 | 0.00 | 0.00 | 0.00 | 54 | 1010.0 |
| 20260509183404 | 23 | 234 | 4.8 | 14.5 | 0.00 | 0.00 | 0.00 | 56 | 1010.0 |
| 20260509182904 | 22 | 263 | 0.0 | 1.6 | 0.00 | 0.00 | 0.00 | 59 | 1009.9 |
| 20260509182405 | 22 | 213 | 0.0 | 1.6 | 0.00 | 0.00 | 0.00 | 63 | 1009.9 |
| 20260509181904 | 22 | 270 | 0.0 | 1.6 | 0.00 | 0.00 | 0.00 | 61 | 1010.0 |
| 20260509181404 | 22 | 258 | 0.0 | 3.2 | 0.00 | 0.00 | 0.00 | 62 | 1010.1 |
| 20260509180904 | 21 | 290 | 0.0 | 1.6 | 0.00 | 0.00 | 0.00 | 63 | 1010.2 |
| 20260509180404 | 21 | 234 | 0.0 | 1.6 | 0.00 | 0.00 | 0.00 | 64 | 1010.1 |
| 20260509175405 | 21 | 272 | 0.0 | 1.6 | 0.00 | 0.00 | 0.00 | 64 | 1010.1 |
| 20260509174904 | 21 | 337 | 0.0 | 12.9 | 0.00 | 0.00 | 0.00 | 63 | 1010.2 |
| 20260509174405 | 21 | 345 | 1.6 | 16.1 | 0.00 | 0.00 | 0.00 | 64 | 1010.2 |
| 20260509173404 | 21 | 237 | 1.6 | 16.1 | 0.00 | 0.00 | 0.00 | 64 | 1010.4 |
| 20260509172904 | 21 | 331 | 4.8 | 12.9 | 0.00 | 0.00 | 0.00 | 63 | 1010.5 |
| 20260509172404 | 21 | 245 | 0.0 | 3.2 | 0.00 | 0.00 | 0.00 | 62 | 1010.5 |
| 20260509171905 | 21 | 332 | 0.0 | 3.2 | 0.00 | 0.00 | 0.00 | 64 | 1010.5 |
| 20260509171404 | 21 | 320 | 0.0 | 1.6 | 0.00 | 0.00 | 0.00 | 65 | 1010.6 |
| 20260509170904 | 21 | 154 | 0.0 | 1.6 | 0.00 | 0.00 | 0.00 | 67 | 1010.6 |
| 20260509170404 | 20 | 346 | 0.0 | 8.0 | 0.00 | 0.00 | 0.00 | 64 | 1010.6 |
| 20260509165904 | 20 | 284 | 8.0 | 14.5 | 0.00 | 0.00 | 0.00 | 64 | 1010.7 |
| 20260509164905 | 20 | 234 | 0.0 | 1.6 | 0.00 | 0.00 | 0.00 | 65 | 1010.7 |
| 20260509164405 | 20 | 358 | 0.0 | 3.2 | 0.00 | 0.00 | 0.00 | 65 | 1010.7 |
| 20260509163904 | 20 | 338 | 0.0 | 4.8 | 0.00 | 0.00 | 0.00 | 64 | 1010.8 |
| 20260509162904 | 20 | 246 | 0.0 | 0.0 | 0.00 | 0.00 | 0.00 | 65 | 1010.6 |
| 20260509162405 | 20 | 308 | 0.0 | 0.0 | 0.00 | 0.00 | 0.00 | 65 | 1010.7 |
| 20260509161904 | 20 | 338 | 0.0 | 0.0 | 0.00 | 0.00 | 0.00 | 65 | 1010.7 |
| 20260509160904 | 20 | 159 | 0.0 | 0.0 | 0.00 | 0.00 | 0.00 | 67 | 1010.7 |
| 20260509160404 | 19 | 240 | 0.0 | 0.0 | 0.00 | 0.00 | 0.00 | 66 | 1010.7 |
| 20260509155904 | 19 | 240 | 0.0 | 0.0 | 0.00 | 0.00 | 0.00 | 66 | 1010.7 |
| 20260509154904 | 18 | 220 | 0.0 | 0.0 | 0.00 | 0.00 | 0.00 | 69 | 1010.6 |
| 20260509154404 | 18 | 231 | 0.0 | 0.0 | 0.00 | 0.00 | 0.00 | 68 | 1010.5 |
| 20260509153904 | 18 | 288 | 0.0 | 0.0 | 0.00 | 0.00 | 0.00 | 68 | 1010.6 |
| 20260509153404 | 18 | 220 | 0.0 | 0.0 | 0.00 | 0.00 | 0.00 | 69 | 1010.5 |
| 20260509152404 | 18 | 329 | 0.0 | 0.0 | 0.00 | 0.00 | 0.00 | 71 | 1010.3 |
| 20260509151904 | 17 | 302 | 0.0 | 0.0 | 0.00 | 0.00 | 0.00 | 70 | 1010.2 |
| 20260509150905 | 17 | 267 | 0.0 | 0.0 | 0.00 | 0.00 | 0.00 | 70 | 1010.2 |
| 20260509150404 | 17 | 337 | 0.0 | 0.0 | 0.00 | 0.00 | 0.00 | 71 | 1010.1 |
| 20260509145904 | 17 | 259 | 0.0 | 0.0 | 0.00 | 0.00 | 0.00 | 72 | 1010.1 |
| 20260509145404 | 17 | 251 | 0.0 | 0.0 | 0.00 | 0.00 | 0.00 | 73 | 1010.1 |
| 20260509144904 | 17 | 249 | 0.0 | 0.0 | 0.00 | 0.00 | 0.00 | 73 | 1010.0 |
| 20260509144404 | 17 | 225 | 0.0 | 0.0 | 0.00 | 0.00 | 0.00 | 73 | 1009.9 |
| 20260509143404 | 17 | 296 | 0.0 | 0.0 | 0.00 | 0.00 | 0.00 | 73 | 1010.0 |
| 20260509142904 | 17 | 248 | 0.0 | 0.0 | 0.00 | 0.00 | 0.00 | 75 | 1010.1 |
| 20260509142404 | 17 | 250 | 0.0 | 0.0 | 0.00 | 0.00 | 0.00 | 76 | 1010.0 |
| 20260509141904 | 17 | 272 | 0.0 | 0.0 | 0.00 | 0.00 | 0.00 | 79 | 1009.9 |
| 20260509141404 | 17 | 189 | 0.0 | 0.0 | 0.00 | 0.00 | 0.00 | 81 | 1009.8 |
| 20260509140904 | 16 | 233 | 0.0 | 0.0 | 0.00 | 0.00 | 0.00 | 82 | 1009.8 |
| 20260509135905 | 15 | 68 | 0.0 | 0.0 | 0.00 | 0.00 | 0.00 | 83 | 1009.7 |
| 20260509132905 | 15 | 186 | 0.0 | 0.0 | 0.00 | 0.00 | 0.00 | 83 | 1009.6 |
| 20260509132404 | 15 | 229 | 0.0 | 0.0 | 0.00 | 0.00 | 0.00 | 83 | 1009.7 |
| 20260509131904 | 14 | 260 | 0.0 | 0.0 | 0.00 | 0.00 | 0.00 | 83 | 1009.7 |
| 20260508225405 | 23 | 196 | 0.0 | 1.6 | 0.00 | 0.00 | 0.00 | 40 | 1009.8 |
| 20260508224904 | 23 | 245 | 0.0 | 1.6 | 0.00 | 0.00 | 0.00 | 40 | 1009.9 |
| 20260508223404 | 23 | 189 | 0.0 | 1.6 | 0.00 | 0.00 | 0.00 | 40 | 1009.7 |
| 20260508222405 | 23 | 194 | 0.0 | 1.6 | 0.00 | 0.00 | 0.00 | 40 | 1009.8 |
| 20260508221905 | 23 | 220 | 1.6 | 11.3 | 0.00 | 0.00 | 0.00 | 39 | 1009.7 |
| 20260508220904 | 24 | 229 | 0.0 | 1.6 | 0.00 | 0.00 | 0.00 | 40 | 1009.7 |
| 20260508215905 | 24 | 194 | 4.8 | 22.5 | 0.00 | 0.00 | 0.00 | 39 | 1009.6 |
| 20260508215404 | 25 | 167 | 8.0 | 20.9 | 0.00 | 0.00 | 0.00 | 40 | 1009.5 |
| 20260508214405 | 25 | 156 | 0.0 | 20.9 | 0.00 | 0.00 | 0.00 | 38 | 1009.5 |
| 20260508213905 | 25 | 228 | 0.0 | 3.2 | 0.00 | 0.00 | 0.00 | 38 | 1009.6 |
| 20260508213405 | 25 | 301 | 1.6 | 19.3 | 0.00 | 0.00 | 0.00 | 40 | 1009.7 |
| 20260508212904 | 25 | 196 | 0.0 | 3.2 | 0.00 | 0.00 | 0.00 | 39 | 1009.6 |
| 20260508212405 | 25 | 251 | 0.0 | 3.2 | 0.00 | 0.00 | 0.00 | 39 | 1009.6 |
| 20260508211405 | 25 | 171 | 4.8 | 24.1 | 0.00 | 0.00 | 0.00 | 39 | 1009.8 |
| 20260508210904 | 25 | 165 | 8.0 | 16.1 | 0.00 | 0.00 | 0.00 | 38 | 1009.8 |
| 20260508205905 | 25 | 201 | 4.8 | 19.3 | 0.00 | 0.00 | 0.00 | 39 | 1009.9 |